Hourly Weather Roundup
Issued by NWS Central Illinois

Home | Current Version | Previous Version | Text Only | Print | Product List | Glossary On
Versions: 1 2 3 4 5 6 7 8 9 10 11 12 13 14 15 16 17 18 19 20 21 22 23 24 25 26 27 28 29 30 31 32 33 34 35 36 37 38 39 40 41 42 43 44 45 46 47 48 49 50
000
NZUS43 KILX 280410
HWRILX

AREA WEATHER ROUNDUP
NATIONAL WEATHER SERVICE, LINCOLN IL
1100 PM CDT MON JUL 27 2015


CITY           SKY/WX    TMP DP  RH WIND       PRES   REMARKS
BLOOMINGTON    CLOUDY    76  74  93 E6        29.99F
CHAMPAIGN      CLOUDY    76  72  87 NE3       29.98F
DANVILLE       CLOUDY    74  73  95 NE3       29.96F
DECATUR        CLOUDY    75  72  90 E3        29.97F
EFFINGHAM      CLOUDY    78  73  82 E3        29.99R HX  81
FLORA          CLOUDY    74  67  77 NW6G24    29.99R THUNDER
GALESBURG      CLOUDY    76  72  87 E3        29.95S
JACKSONVILLE   CLOUDY    75  73  93 E5        29.93F
LACON          CLOUDY    78  69  75 E6        29.96F HX  80
LAWRENCEVILLE  CLOUDY    77  72  84 CALM      29.96F
LITCHFIELD     CLOUDY    73  69  85 N8        29.96F
$$


CITY           SKY/WX    TMP DP  RH WIND       PRES   REMARKS
LINCOLN        CLOUDY    77  73  86 CALM      29.96S
MACOMB         CLOUDY    74  73  98 SE6       29.96F
MATTOON        CLOUDY    77  71  82 E3        29.97F
MT CARMEL AP   CLOUDY    79  73  83 CALM      29.96S HX  82
OLNEY-NOBLE AP CLOUDY    75  72  88 CALM      29.98S
PARIS          CLOUDY    74  73  97 CALM      29.99S FOG
PEORIA         CLOUDY    80  72  76 E6        29.95F HX  84
PONTIAC        CLOUDY    76  72  88 E6        29.99F
RANTOUL        CLOUDY    78  75  90 E6        29.98F HX  80
ROBINSON       CLOUDY    75  72  92 SE3       29.97F
SPRINGFIELD    LGT RAIN  79  76  90 S3        29.95F HX  83
TAYLORVILLE    LGT RAIN  77  73  88 NE6       29.96S
$$

...REGIONAL REPORTS...


CITY           SKY/WX    TMP DP  RH WIND       PRES   REMARKS
CHICAGO O`HARE MOCLDY    74  65  73 E6        30.02R
KANKAKEE       MOCLDY    72  69  88 NE6       30.00F
MOLINE         CLOUDY    75  72  90 E7        29.94F
MOUNT STERLING NOT AVBL
MOUNT VERNON   CLOUDY    75  70  83 CALM      29.98S
PITTSFIELD     CLOUDY    73  71  93 CALM      29.95R
QUINCY         CLOUDY    73  71  93 CALM      29.93F
ROCKFORD       MOCLDY    74  64  71 SE7       30.01F
$$


CITY           SKY/WX    TMP DP  RH WIND       PRES   REMARKS
BURLINGTON     CLOUDY    76  74  93 SE5       29.93F
CEDAR RAPIDS   PTCLDY    73  73 100 SE5       29.95S
DES MOINES     PTCLDY    74  69  85 SE8       29.91S
KIRKSVILLE     CLEAR     74  71  91 SE8       29.95F
OTTUMWA        MOCLDY    72  71  97 SE6       29.92S
ST LOUIS       CLOUDY    78  69  73 SE9       29.96F HX  80
$$


CITY           SKY/WX    TMP DP  RH WIND       PRES   REMARKS
TERRE HAUTE    MOCLDY    75  73  93 NE3       29.97F
EVANSVILLE     CLOUDY    79  71  76 W5        29.97F HX  82
INDIANAPOLIS   CLOUDY    78  71  79 E6        29.99F HX  80
LAFAYETTE      MOCLDY    73  68  84 NE3       29.99F
MADISON        PTCLDY    75  64  68 SE8       30.01R
MILWAUKEE      MOCLDY    72  66  81 SE3       30.03R
$$




USA.gov is the U.S. government's official web portal to all federal, state and local government web resources and services.